Погода в Сен-Жан-де-Моне

Франция     46°47′40″N   2°03′26″W
темп.,
°C
ветер,
м/с
пор.,
м/с
влажн.,
%
обл.,
%
осадки,
мм/ч
давл.,
гПа
погр.,
м
19 января, вт
вт1901:00+8ююз8118282 0.0 1024531
04:00+8ююз7108299 0.0 1021494
07:00+9ююз698798 0.0 1019375
10:00+9ю7109073 0.0 1018427
13:00+10ю8129184 0.0 1017462
16:00+10ююз8129166 0.0 1013465
19:00+10ююз7119483 0.0 1012286
22:00+10ю91389100 0.0 1010380
20 января, ср
ср2001:00+10ю71187100 0.1 1008303
04:00+11ю81381100 0.1 1004302
07:00+11ю91579100 0.1 1002485
10:00+10ююз111883100 0.3 1000713
13:00+10ю152182100 0.8 997627
16:00+11ю152377100 0.1 994748
19:00+11ююз152282100 1.0 993896
22:00+11юз12198892 0.6 992748
21 января, чт
чт2101:00+11юз13208787 0.9 993692
04:00+9з8137954 0.8 996738
07:00+10зюз8127666 0.8 998726
10:00+10юз71176100 0.2 998686
13:00+9ю6991100 1.6 994603
16:00+11юз142085100 10.6 989852
19:00+10зюз10158656 11.0 991523
22:00+8сз8117657 0.1 995885
22 января, пт
пт2201:00+8зсз8117560 0.3 1000891
04:00+8з71076100 0.3 1002776
07:00+8з6976100 0.7 1002639
10:00+9з5877100 0.5 1004550
13:00+9з797397 1.4 1005826
16:00+9з8117589 0.6 1005876
19:00+9з7117794 1.3 1006762
22:00+9зюз71077100 0.8 1005698
23 января, сб
сб2301:00+9юз101478100 1.1 1003960
04:00+10зюз162277100 0.8 9991436
07:00+10з162371100 1.5 9981680
10:00+8сз101471100 0.1 10021143
13:00+9з5675100 0.3 10011066
16:00+6з3388100 3.1 1000446
19:00+6ссв1186100 3.8 1001220
22:00+6ююз4487100 0.1 1002275